Previsão horária em Abertillery

Hoje, 12 Abril, Segunda-feira

Tempo Temperatura Precipitação Vento Pressão Humidade
00:00 0°C° 0 mm 1 m/s 748 mmHg 81%
01:00 0°C° 0 mm 1 m/s 748 mmHg 83%
02:00 0°C° 0 mm 1 m/s 748 mmHg 84%
03:00 +1°C° 0 mm 1 m/s 748 mmHg 86%
04:00 +1°C° 0.3 mm 1 m/s 748 mmHg 89%
05:00 +2°C° 0.3 mm 1 m/s 749 mmHg 93%
06:00 +2°C° 0.3 mm 1 m/s 749 mmHg 97%
07:00 +3°C° 0.1 mm 1 m/s 749 mmHg 94%
08:00 +2°C° 0.1 mm 2 m/s 750 mmHg 92%
09:00 +3°C° 0.1 mm 2 m/s 750 mmHg 89%
10:00 +4°C° 0 mm 2 m/s 750 mmHg 84%
11:00 +5°C° 0 mm 2 m/s 751 mmHg 79%
12:00 +5°C° 0 mm 2 m/s 751 mmHg 74%
13:00 +5°C° 0.1 mm 2 m/s 751 mmHg 77%
14:00 +6°C° 0.1 mm 2 m/s 751 mmHg 75%
15:00 +5°C° 0.1 mm 3 m/s 751 mmHg 73%
16:00 +5°C° 0.1 mm 3 m/s 751 mmHg 76%
17:00 +4°C° 0.1 mm 3 m/s 751 mmHg 79%
18:00 +4°C° 0.1 mm 3 m/s 752 mmHg 82%
19:00 +4°C° 0 mm 2 m/s 752 mmHg 84%
20:00 +2°C° 0 mm 2 m/s 752 mmHg 86%
21:00 +1°C° 0 mm 2 m/s 753 mmHg 89%
22:00 +2°C° 0 mm 1 m/s 753 mmHg 88%
23:00 +1°C° 0 mm 1 m/s 753 mmHg 88%

Amanhã, 13 Abril, Terça-feira

Tempo Temperatura Precipitação Vento Pressão Humidade
00:00 +1°C° 0 mm 1 m/s 753 mmHg 88%
01:00 +2°C° 0 mm 1 m/s 753 mmHg 88%
02:00 +1°C° 0 mm 0 m/s 753 mmHg 87%
03:00 +2°C° 0 mm 0 m/s 753 mmHg 87%
04:00 +2°C° 0 mm 0 m/s 753 mmHg 87%
05:00 +2°C° 0 mm 0 m/s 753 mmHg 88%
06:00 +3°C° 0 mm 0 m/s 753 mmHg 88%
07:00 +3°C° 0 mm 0 m/s 753 mmHg 87%
08:00 +5°C° 0 mm 1 m/s 754 mmHg 86%
09:00 +6°C° 0 mm 1 m/s 754 mmHg 86%
10:00 +7°C° 0 mm 1 m/s 754 mmHg 81%
11:00 +8°C° 0 mm 1 m/s 754 mmHg 76%
12:00 +8°C° 0 mm 2 m/s 754 mmHg 71%
13:00 +9°C° 0.2 mm 2 m/s 753 mmHg 71%
14:00 +9°C° 0.2 mm 2 m/s 753 mmHg 70%
15:00 +9°C° 0.2 mm 2 m/s 753 mmHg 70%
16:00 +9°C° 0.3 mm 2 m/s 753 mmHg 74%
17:00 +8°C° 0.3 mm 2 m/s 753 mmHg 79%
18:00 +7°C° 0.3 mm 2 m/s 753 mmHg 84%
19:00 +6°C° 0.1 mm 2 m/s 753 mmHg 86%
20:00 +5°C° 0.1 mm 2 m/s 753 mmHg 88%
21:00 +5°C° 0.1 mm 1 m/s 753 mmHg 90%
22:00 +4°C° 0 mm 1 m/s 753 mmHg 91%
23:00 +4°C° 0 mm 1 m/s 753 mmHg 91%

Depois de amanhã, 14 Abril, Quarta-feira

Tempo Temperatura Precipitação Vento Pressão Humidade
00:00 +3°C° 0 mm 1 m/s 753 mmHg 91%
01:00 +3°C° 0 mm 1 m/s 753 mmHg 91%
02:00 +3°C° 0 mm 1 m/s 753 mmHg 91%
03:00 +2°C° 0 mm 1 m/s 753 mmHg 91%
04:00 +1°C° 0 mm 2 m/s 753 mmHg 91%
05:00 +1°C° 0 mm 2 m/s 753 mmHg 91%
06:00 +1°C° 0 mm 2 m/s 753 mmHg 91%
07:00 +3°C° 0 mm 2 m/s 754 mmHg 86%
08:00 +5°C° 0 mm 2 m/s 754 mmHg 81%
09:00 +7°C° 0 mm 2 m/s 754 mmHg 76%
10:00 +8°C° 0 mm 2 m/s 754 mmHg 71%
11:00 +9°C° 0 mm 2 m/s 754 mmHg 67%
12:00 +10°C° 0 mm 3 m/s 754 mmHg 62%
13:00 +10°C° 0.1 mm 3 m/s 753 mmHg 64%
14:00 +9°C° 0.1 mm 3 m/s 753 mmHg 66%
15:00 +9°C° 0.1 mm 3 m/s 753 mmHg 68%
16:00 +9°C° 0.1 mm 2 m/s 753 mmHg 71%
17:00 +8°C° 0.1 mm 2 m/s 753 mmHg 74%
18:00 +8°C° 0.1 mm 2 m/s 753 mmHg 77%
19:00 +6°C° 0 mm 2 m/s 753 mmHg 79%
20:00 +5°C° 0 mm 2 m/s 754 mmHg 82%
21:00 +3°C° 0 mm 2 m/s 754 mmHg 84%
22:00 +3°C° 0 mm 2 m/s 754 mmHg 85%
23:00 +2°C° 0 mm 2 m/s 754 mmHg 85%

15 Abril, Quinta-feira

Tempo Temperatura Precipitação Vento Pressão Humidade
00:00 +1°C° 0 mm 2 m/s 754 mmHg 85%
01:00 +1°C° 0 mm 2 m/s 754 mmHg 85%
02:00 -1°C° 0 mm 2 m/s 754 mmHg 85%
03:00 -1°C° 0 mm 2 m/s 754 mmHg 85%
04:00 -1°C° 0 mm 2 m/s 754 mmHg 84%
05:00 -2°C° 0 mm 2 m/s 754 mmHg 83%
06:00 -2°C° 0 mm 2 m/s 754 mmHg 82%
07:00 0°C° 0 mm 3 m/s 754 mmHg 74%
08:00 +2°C° 0 mm 3 m/s 755 mmHg 67%
09:00 +4°C° 0 mm 3 m/s 755 mmHg 60%
10:00 +5°C° 0 mm 4 m/s 755 mmHg 59%
11:00 +6°C° 0 mm 4 m/s 754 mmHg 58%
12:00 +7°C° 0 mm 4 m/s 754 mmHg 56%
13:00 +7°C° 0 mm 4 m/s 754 mmHg 54%
14:00 +7°C° 0 mm 4 m/s 754 mmHg 53%
15:00 +7°C° 0 mm 4 m/s 753 mmHg 51%
16:00 +7°C° 0 mm 4 m/s 753 mmHg 58%
17:00 +7°C° 0 mm 3 m/s 753 mmHg 64%
18:00 +5°C° 0 mm 3 m/s 753 mmHg 71%
19:00 +3°C° 0 mm 3 m/s 753 mmHg 75%
20:00 +3°C° 0 mm 2 m/s 754 mmHg 80%
21:00 +1°C° 0 mm 2 m/s 754 mmHg 84%
22:00 +1°C° 0 mm 2 m/s 754 mmHg 85%
23:00 -1°C° 0 mm 2 m/s 754 mmHg 87%

16 Abril, Sexta-feira

Tempo Temperatura Precipitação Vento Pressão Humidade
00:00 -1°C° 0 mm 2 m/s 754 mmHg 89%
01:00 -2°C° 0 mm 2 m/s 754 mmHg 90%
02:00 -2°C° 0 mm 2 m/s 754 mmHg 92%
03:00 -3°C° 0 mm 2 m/s 754 mmHg 93%
04:00 -3°C° 0 mm 2 m/s 754 mmHg 93%
05:00 -4°C° 0 mm 3 m/s 754 mmHg 94%
06:00 -4°C° 0 mm 3 m/s 755 mmHg 94%
07:00 0°C° 0 mm 3 m/s 755 mmHg 84%
08:00 +1°C° 0 mm 4 m/s 755 mmHg 75%
09:00 +3°C° 0 mm 5 m/s 755 mmHg 65%
10:00 +5°C° 0 mm 5 m/s 755 mmHg 62%
11:00 +5°C° 0 mm 6 m/s 755 mmHg 59%
12:00 +8°C° 0 mm 6 m/s 754 mmHg 55%
13:00 +8°C° 0 mm 6 m/s 754 mmHg 56%
14:00 +8°C° 0 mm 6 m/s 754 mmHg 57%
15:00 +8°C° 0 mm 6 m/s 754 mmHg 58%
16:00 +8°C° 0 mm 5 m/s 754 mmHg 62%
17:00 +7°C° 0 mm 4 m/s 754 mmHg 66%
18:00 +7°C° 0 mm 4 m/s 754 mmHg 70%
19:00 +5°C° 0 mm 4 m/s 754 mmHg 76%
20:00 +3°C° 0 mm 4 m/s 754 mmHg 81%
21:00 +2°C° 0 mm 3 m/s 754 mmHg 86%
22:00 +1°C° 0 mm 3 m/s 754 mmHg 88%
23:00 0°C° 0 mm 3 m/s 754 mmHg 89%

17 Abril, Sábado

Tempo Temperatura Precipitação Vento Pressão Humidade
00:00 0°C° 0 mm 3 m/s 754 mmHg 91%
01:00 -1°C° 0 mm 3 m/s 754 mmHg 92%
02:00 -1°C° 0 mm 3 m/s 753 mmHg 93%
03:00 -1°C° 0 mm 3 m/s 753 mmHg 93%
04:00 -2°C° 0 mm 4 m/s 753 mmHg 93%
05:00 -2°C° 0 mm 4 m/s 753 mmHg 93%
06:00 -2°C° 0 mm 4 m/s 753 mmHg 93%
07:00 0°C° 0 mm 4 m/s 753 mmHg 85%
08:00 +2°C° 0 mm 5 m/s 753 mmHg 76%
09:00 +4°C° 0 mm 6 m/s 753 mmHg 68%
10:00 +7°C° 0 mm 6 m/s 753 mmHg 64%
11:00 +8°C° 0 mm 6 m/s 752 mmHg 60%
12:00 +9°C° 0 mm 6 m/s 752 mmHg 57%
13:00 +9°C° 0 mm 6 m/s 752 mmHg 57%
14:00 +10°C° 0 mm 6 m/s 751 mmHg 57%
15:00 +10°C° 0 mm 6 m/s 751 mmHg 56%
16:00 +9°C° 0 mm 6 m/s 751 mmHg 61%
17:00 +9°C° 0 mm 5 m/s 751 mmHg 66%
18:00 +8°C° 0 mm 5 m/s 750 mmHg 71%
19:00 +6°C° 0 mm 4 m/s 751 mmHg 75%
20:00 +4°C° 0 mm 4 m/s 751 mmHg 79%
21:00 +3°C° 0 mm 4 m/s 751 mmHg 83%
22:00 +2°C° 0 mm 3 m/s 751 mmHg 84%
23:00 +1°C° 0 mm 3 m/s 751 mmHg 85%
Mostrar mais